Ulaanbaatar, Mongolia

1:23 PM +08 on March 28, 2017 (GMT +0800)
Ulaanbaatar

Weather History for ZMUB - January, 2013

Change the Weather History Date:

Monday, January 7, 2013

  Actual Average Record
Temperature  
Mean Temperature -20 °F -  
Max Temperature -8 °F 6 °F - ()
Min Temperature -32 °F -15 °F - ()
Degree Days  
Heating Degree Days 85    
Moisture  
Dew Point -30 °F    
Average Humidity 68    
Maximum Humidity 77    
Minimum Humidity 47    
Precipitation  
Precipitation 0.29 in 0.00 in - ()
Sea Level Pressure  
Sea Level Pressure 30.26 in    
Wind  
Wind Speed 2 mph ()    
Max Wind Speed 4 mph    
Max Gust Speed -    
Visibility 2.5 miles    
Events Snow    
T = Trace of Precipitation, MM = Missing Value Source: Averaged Metar Reports

Daily Weather History Graph

Daily Weather History Graph

Search for Another Location

Airport or City:

Trip Planner

Search our weather history database for the weather conditions in past years. The results will help you decide how hot, cold, wet, or windy it might be!

Date:

Astronomy

Jan. 07, 2013 Rise Set
Actual Time 8:41 AM +08 5:17 PM +08
Civil Twilight 8:05 AM +08 5:52 PM +08
Nautical Twilight 7:26 AM +08 6:32 PM +08
Astronomical Twilight 6:49 AM +08 7:09 PM +08
Moon 3:19 AM +08 (1/7) 1:09 PM +08 (1/7)
Length of Visible Light 9h 47m
Length of Day
8h 36m
Waning Crescent, 28% of the Moon is Illuminated
Jan 7
Waning Crescent
Jan 12
New
Jan 19
First Quarter
Jan 27
Full
Feb 3
Last Quarter

Hourly Weather History & Observations

Time (+08) Temp. Windchill Dew Point Humidity Pressure Visibility Wind Dir Wind Speed Gust Speed Precip Events Conditions
12:00 AM -25.6 °F - -31.0 °F 76% 30.06 in 3.7 mi Variable 2.2 mph - N/A   Scattered Clouds
1:00 AM -25.6 °F - -31.0 °F 76% 30.06 in 3.1 mi Variable 2.2 mph - N/A   Smoke
2:00 AM -20 °F - -28 °F 49% 30.83 in - Calm Calm - - Snow Snow
2:00 AM -27.4 °F - -32.8 °F 75% 30.06 in 3.1 mi Variable 2.2 mph - N/A   Smoke
3:00 AM -31.0 °F - -38.2 °F 68% 30.09 in 3.1 mi Variable 2.2 mph - N/A   Smoke
4:00 AM -27.4 °F - -34.6 °F 69% 30.09 in 3.1 mi Variable 2.2 mph - N/A   Smoke
5:00 AM -21 °F - -30 °F 47% 30.85 in - WSW 4.5 mph - - Snow Snow
5:00 AM -29.2 °F - -36.4 °F 68% 30.09 in 3.1 mi Calm Calm - N/A   Smoke
5:30 AM -29.2 °F - -36.4 °F 68% 30.09 in 3.1 mi Variable 2.2 mph - N/A   Smoke
6:00 AM -31.0 °F - -38.2 °F 68% 30.09 in 3.1 mi Variable 2.2 mph - N/A   Smoke
7:00 AM -31.0 °F - -36.4 °F 75% 30.09 in 3.1 mi Variable 2.2 mph - N/A   Smoke
7:30 AM -32.8 °F - -40.0 °F 68% 30.09 in 3.1 mi Variable 2.2 mph - N/A   Smoke
8:00 AM -21 °F - -30 °F 47% 30.88 in - West 2.2 mph - - Snow Snow
8:00 AM -32.8 °F - -40.0 °F 68% 30.12 in 3.1 mi Variable 2.2 mph - N/A   Smoke
8:30 AM -32.8 °F - -40.0 °F 68% 30.12 in 3.1 mi Variable 2.2 mph - N/A   Smoke
9:00 AM -32.8 °F - -40.0 °F 68% 30.12 in 2.5 mi Variable 2.2 mph - N/A   Smoke
9:30 AM -29.2 °F - -36.4 °F 68% 30.15 in 2.5 mi Calm Calm - N/A   Ice Crystals
10:00 AM -29.2 °F - -36.4 °F 68% 30.15 in 1.2 mi Variable 2.2 mph - N/A   Ice Crystals
10:30 AM -29.2 °F - -36.4 °F 68% 30.15 in 1.2 mi Calm Calm - N/A   Ice Crystals
11:00 AM -18 °F - -27 °F 48% 30.90 in 0 mi Calm Calm - - Snow Snow
11:00 AM -27.4 °F - -32.8 °F 75% 30.18 in 1.2 mi Calm Calm - N/A   Ice Crystals
11:30 AM -22.0 °F - -29.2 °F 69% 30.18 in 1.2 mi Variable 2.2 mph - N/A   Ice Crystals
12:00 PM -25.6 °F - -32.8 °F 69% 30.18 in 1.2 mi Variable 2.2 mph - N/A   Smoke
12:30 PM -18.4 °F - -23.8 °F 76% 30.15 in 1.2 mi Calm Calm - N/A   Smoke
1:00 PM -16.6 °F - -22.0 °F 76% 30.15 in 1.2 mi Calm Calm - N/A   Smoke
1:30 PM -20.2 °F - -27.4 °F 69% 30.15 in 1.2 mi Variable 2.2 mph - N/A   Smoke
2:00 PM -11 °F - -19 °F 51% 30.79 in 0 mi WSW 4.5 mph - -   Smoke
2:00 PM -16.6 °F - -23.8 °F 70% 30.15 in 3.1 mi Calm Calm - N/A   Smoke
2:30 PM -13.0 °F - -20.2 °F 70% 30.15 in 5.0 mi Calm Calm - N/A   Unknown
3:00 PM -14.8 °F - -20.2 °F 77% 30.15 in 5.0 mi Calm Calm - N/A   Unknown
3:30 PM -14.8 °F - -20.2 °F 77% 30.15 in - Calm Calm - N/A   Clear
4:00 PM -11.2 °F - -16.6 °F 77% 30.15 in - Calm Calm - N/A   Clear
4:30 PM -14.8 °F - -20.2 °F 77% 30.15 in - Variable 2.2 mph - N/A   Clear
5:00 PM -11 °F - -19 °F 54% 30.80 in 2 mi SSW 2.2 mph - -   Smoke
5:00 PM -16.6 °F - -23.8 °F 70% 30.15 in - Variable 2.2 mph - N/A   Clear
5:30 PM -22.0 °F - -27.4 °F 76% 30.15 in - Variable 2.2 mph - N/A   Clear
6:00 PM -25.6 °F -39.5 °F -31.0 °F 76% 30.15 in - South 4.5 mph - N/A   Clear
6:30 PM -23.8 °F - -29.2 °F 76% 30.18 in - Calm Calm - N/A   Clear
7:00 PM -23.8 °F -37.4 °F -29.2 °F 76% 30.18 in - SSE 4.5 mph - N/A   Clear
7:30 PM -23.8 °F - -29.2 °F 76% 30.18 in - Variable 2.2 mph - N/A   Clear
8:00 PM -15 °F - -23 °F 54% 30.89 in - West 4.5 mph - -   Smoke
8:00 PM -23.8 °F - -31.0 °F 69% 30.18 in - Calm Calm - N/A   Clear
8:30 PM -23.8 °F - -31.0 °F 69% 30.21 in - Variable 2.2 mph - N/A   Clear
9:00 PM -25.6 °F - -31.0 °F 76% 30.21 in - Variable 2.2 mph - N/A   Clear
9:30 PM -31.0 °F - -38.2 °F 68% 30.21 in - Variable 2.2 mph - N/A   Clear
10:00 PM -29.2 °F - -36.4 °F 68% 30.21 in - Calm Calm - N/A   Clear
10:30 PM -25.6 °F - -32.8 °F 69% 30.21 in - Variable 2.2 mph - N/A   Clear
11:00 PM -18 °F - -25 °F 53% 30.95 in - WSW 2.2 mph - -   Smoke
11:00 PM -25.6 °F - -32.8 °F 69% 30.21 in - Variable 2.2 mph - N/A   Clear
11:30 PM -27.4 °F -41.6 °F -34.6 °F 69% 30.24 in 3.7 mi East 4.5 mph - N/A   Unknown